[ hide orbit diagram ]
For accurate long-term ephemerides, please instead use our Horizons system.This orbit viewer was implemented using two-body methods, and hence should not be used for determining accurate long-term trajectories (over several years or decades) or planetary encounter circumstances.
Orbital Elements at Epoch 2459000.5 (2020-May-31.0) TDB
Reference: JPL 25 (heliocentric ecliptic J2000)
Element | Value | Uncertainty (1-sigma) | Units |
e | .2020361791135169 | 3.0426e-08 | |
a | 2.336653031073 | 7.9286e-09 | au |
q | 1.864564580760993 | 7.0967e-08 | au |
i | 8.157020199160208 | 3.3871e-06 | deg |
node | 147.7743529652144 | 2.7808e-05 | deg |
peri | 199.4739756271836 | 2.9256e-05 | deg |
M | .1481080117618176 | 9.5253e-06 | deg |
tp | 2458999.963257701811 (2020-May-30.46325770) | 3.4519e-05 | TDB |
period | 1304.637237711635 3.57 | 6.6402e-06 1.818e-08 | d yr |
n | .2759387740851614 | 1.4044e-09 | deg/d |
Q | 2.808741481385007 | 9.5304e-09 | au |
|
| | Orbit Determination Parameters
Additional Information
|
[ show covariance matrix ]
Physical Parameter Table
Parameter |
Symbol |
Value |
Units |
Sigma |
Reference |
Notes |
absolute magnitude |
H |
15.6 |
|
n/a |
MPO436344 |
|
|
80569 (2000 AG115) Discovered 2000-Jan-05 by LINEAR at Socorro |
Reference: 20040504/Numbers.arc | Last Updated: 2004-07-16 |
|
|